User: anonymous   Login
Location: Ay?beleni
(36.6500°N, 30.3000°E)
Time: 14:00:41
(UTC+00:00)
Language:

SL-16 R/B - Orbit

View from above orbital plane
View from above orbital plane
View from above satellite
View from above satellite

Ground track
Ground track

The orbit data is extracted from the following two-line orbital elements,

1 31793U 07029B   22023.93114248 -.00000171  00000-0 -64085-4 0  9990
2 31793  70.9753  96.4702 0002028 262.8579 270.2060 14.14456327752429
Epoch (UTC): 23 January 2022 22:20:50
Eccentricity: 0.0002028
inclination: 70.9753°
perigee height: 843 km
apogee height: 845 km
right ascension of ascending node: 96.4702°
argument of perigee: 262.8579°
revolutions per day: 14.14456327
mean anomaly at epoch: 270.2060°
orbit number at epoch: 75242

The dashed part of the orbit path shows where the satellite is in the earth's shadow,  

DLR